Regional Weather Roundup
Issued by NWS

Home | Current Version | Previous Version | Graphics & Text | Print | Product List | Glossary On
Versions: 1 2 3 4 5 6 7 8 9 10 11 12 13 14 15 16 17 18 19 20 21 22 23 24 25 26 27 28 29 30 31 32 33 34 35 36 37 38 39 40 41 42 43 44 45 46 47 48 49 50
000
ASUS43 KMPX 012201
RWRMN
WEATHER ROUNDUP FOR MINNESOTA
NATIONAL WEATHER SERVICE TWIN CITIES/CHANHASSEN MN
500 PM CDT FRI AUG 01 2014


NOTE: "FAIR" INDICATES FEW OR NO CLOUDS BELOW 12,000 FEET WITH NO
SIGNIFICANT WEATHER AND/OR OBSTRUCTIONS TO VISIBILITY. N/A MEANS
CURRENT SKY AND/OR WEATHER CONDITIONS ARE NOT AVAILABLE.

MNZ060>063-068>070-012300-
   Twin Cities Metro

CITY           SKY/WX    TMP DP  RH WIND       PRES   REMARKS
$$
MNZ001>005-007-008-013>017-022>024-027-028-012300-
   Northwest Minnesota

CITY           SKY/WX    TMP DP  RH WIND       PRES   REMARKS
THIEF RVR FALL MOSUNNY   81  54  39 NE8       30.07F
CROOKSTON      SUNNY     81  57  44 N7        30.07F
FOSSTON        MOSUNNY   81  59  47 CALM      30.09S
DETROIT LAKES  SUNNY     79  52  38 NE6       30.09F
$$
MNZ006-009>011-018-025>026-012300-
   North Central Minnesota

CITY           SKY/WX    TMP DP  RH WIND       PRES   REMARKS
BAUDETTE       SUNNY     78  49  35 VRB5      30.08F
FLAG ISLAND    SUNNY     79  43  27 E3        30.05F
LONGVILLE      SUNNY     79  57  47 W6        30.07S
GRAND RAPIDS   SUNNY     79  55  44 NW9       30.06S
ORR            SUNNY     79  50  36 NW5         N/A
$$
MNZ012-019>021-037-012300-
   Northeast Minnesota

CITY           SKY/WX    TMP DP  RH WIND       PRES   REMARKS
TWO HARBORS    SUNNY     72  54  53 SE3       30.06R
GRAND MARAIS     N/A     62  51  67 MISG      30.09F
$$
MNZ029>031-032-039>041-046>048-054>057-064-012300-
   West Central Minnesota

CITY           SKY/WX    TMP DP  RH WIND       PRES   REMARKS
WHEATON        MOSUNNY   81  59  47 W8        30.08S
ALEXANDRIA     SUNNY     81  55  40 NW9       30.09S
WADENA         SUNNY     81  57  44 NW5       30.07S
APPLETON       SUNNY     86  54  32 NW8       30.06S
WILLMAR        FAIR      82  55  39 W8        30.08S
$$
MNZ033>034-036-042>043-049>051-058-059-012300-
   Central Minnesota

CITY           SKY/WX    TMP DP  RH WIND       PRES   REMARKS
ST CLOUD       MOSUNNY   79  59  50 W7        30.05R
BRAINERD       MOSUNNY   79  59  50 N3        30.06F
LONG PRAIRIE   FAIR      79  59  50 W7        30.07S
LITTLE FALLS   PTSUNNY   81  59  47 CALM      30.06S
BUFFALO        PTSUNNY   81  56  42 W6        30.06S
MAPLE LAKE     PTSUNNY   80  62  53 W6        30.06S
$$
MNZ037-044-045-052-053-012300-
   East Central Minnesota

CITY           SKY/WX    TMP DP  RH WIND       PRES   REMARKS
CAMBRIDGE      LGT RAIN  81  63  54 E5        30.04R
RUSH CITY      MOSUNNY   81  57  43 CALM      30.05S
HINCKLEY       FAIR      79  61  53 CALM      30.05S
CLOQUET        MOSUNNY   75  55  50 S3        30.05F
$$
MNZ071>073-080-081-089-090-097-098-012300-
   Southwest Minnesota

CITY           SKY/WX    TMP DP  RH WIND       PRES   REMARKS
MARSHALL       MOSUNNY   82  57  42 W3        30.08S
WORTHINGTON    SUNNY     81  54  39 N5        30.12S
$$
MNZ065>067-074>077-082>085-091>093-012300-
   South Central Minnesota

CITY           SKY/WX    TMP DP  RH WIND       PRES   REMARKS
MANKATO        MOSUNNY   81  57  44 CALM      30.07F
ST JAMES       MOSUNNY   86  54  32 CALM      30.09S
FAIRMONT       MOSUNNY   82  48  30 N5        30.09S
OWATONNA       SUNNY     81  55  41 NW3       30.08S
WASECA         SUNNY     79  54  41 CALM      30.10S
$$
MNZ078>079-086>088-094>096-012300-
   Southeast Minnesota

CITY           SKY/WX    TMP DP  RH WIND       PRES   REMARKS
WINONA         MOSUNNY   82  55  39 W5        30.05S
AUSTIN         MOSUNNY   81  55  41 W5        30.08S
$$
ABBREVIATIONS USED IN REMARKS
   TC - TEMPERATURES IN CELSIUS
  WCI - WIND CHILL INDEX
   HX - HEAT INDEX
  VSB - VISIBILITY
$$



USA.gov is the U.S. government's official web portal to all federal, state and local government web resources and services.